FW2365 Weather Reports


Display with metric or nautical units.
time (UTC)temp
F
wind
direction
speed
MPH
gust
MPH
rain 1hr
in
rain 24hr
in
rain mn
in
humidity
%
barometer
mb
20260504151028 73 280 4.0 6.0 0.00 0.00 0.00 27 1013.4
20260504150531 73 137 0.0 2.0 0.00 0.00 0.00 28 1013.4
20260504141027 75 246 0.0 3.0 0.00 0.00 0.00 25 1013.6
20260504140523 74 185 0.0 5.0 0.00 0.00 0.00 28 1013.6
20260504130516 74 304 2.0 7.0 0.00 0.00 0.00 34 1013.7
20260504110502 71 325 2.0 9.0 0.00 0.00 0.00 41 1014.9
20260504100550 70 275 4.0 10.0 0.00 0.00 0.00 43 1015.8
20260504081526 64 309 4.0 8.0 0.00 0.00 0.00 52 1017.2
20260504081030 65 304 5.0 8.0 0.00 0.00 0.00 49 1017.2
20260504080526 64 299 2.0 5.0 0.00 0.00 0.00 52 1017.2
20260504060107 57 141 0.0 2.0 0.00 0.00 0.00 62 1018.1
20260504050546 54 141 0.0 2.0 0.00 0.00 0.00 65 1018.1
20260504045542 53 141 0.0 2.0 0.00 0.00 0.00 65 1018.1
20260504045142 53 141 0.0 2.0 0.00 0.00 0.00 66 1018.1
20260504044541 52 141 0.0 2.0 0.00 0.00 0.00 66 1018.2
20260504044041 51 141 0.0 2.0 0.00 0.00 0.00 66 1018.1
20260504043540 51 141 0.0 2.0 0.00 0.00 0.00 67 1018.1
20260504043042 51 141 0.0 2.0 0.00 0.00 0.00 67 1018.0
20260504042538 51 192 0.0 2.0 0.00 0.00 0.00 67 1018.0
20260504042037 51 192 0.0 2.0 0.00 0.00 0.00 66 1017.9
20260504041536 52 192 0.0 1.0 0.00 0.00 0.00 66 1017.9
20260504041035 52 192 1.0 2.0 0.00 0.00 0.00 64 1017.9
20260504040537 53 192 0.0 2.0 0.00 0.00 0.00 62 1017.9
20260504040035 53 192 0.0 2.0 0.00 0.00 0.00 62 1017.9
20260504035534 52 345 0.0 2.0 0.00 0.00 0.00 63 1017.9
20260504035034 52 345 0.0 2.0 0.00 0.00 0.00 63 1017.9
20260504034533 52 345 0.0 3.0 0.00 0.00 0.00 64 1018.0
20260504034037 52 345 0.0 3.0 0.00 0.00 0.00 64 1018.0
20260504033533 52 345 2.0 3.0 0.00 0.00 0.00 64 1018.1
20260504033038 52 345 0.0 2.0 0.00 0.00 0.00 64 1018.1
20260504032533 52 345 0.0 2.0 0.00 0.00 0.00 64 1018.0
20260504032032 53 345 0.0 2.0 0.00 0.00 0.00 64 1018.0
20260504031530 53 345 0.0 2.0 0.00 0.00 0.00 63 1017.9
20260504031029 53 345 0.0 2.0 0.00 0.00 0.00 62 1017.9
20260504030528 53 345 0.0 2.0 0.00 0.00 0.00 62 1017.9
20260504030028 53 345 0.0 2.0 0.00 0.00 0.00 62 1017.9
20260504025528 53 345 0.0 2.0 0.00 0.00 0.00 62 1017.9
20260504025028 54 345 0.0 2.0 0.00 0.00 0.00 62 1018.1
20260504024533 54 345 0.0 5.0 0.00 0.00 0.00 62 1018.1
20260504024027 54 345 2.0 5.0 0.00 0.00 0.00 62 1018.1
20260504023526 53 162 0.0 3.0 0.00 0.00 0.00 61 1018.1
20260504023026 54 157 0.0 2.0 0.00 0.00 0.00 58 1018.2
20260504022530 54 156 0.0 2.0 0.00 0.00 0.00 58 1018.1
20260504022025 54 156 0.0 3.0 0.00 0.00 0.00 58 1018.1
20260504021527 54 156 0.0 3.0 0.00 0.00 0.00 58 1018.1
20260504021025 54 156 0.0 3.0 0.00 0.00 0.00 58 1018.1
20260504020525 54 156 0.0 3.0 0.00 0.00 0.00 58 1018.0
20260504020024 54 156 1.0 3.0 0.00 0.00 0.00 59 1018.0
20260504015524 53 156 1.0 3.0 0.00 0.00 0.00 61 1018.0
20260504015024 54 291 1.0 2.0 0.00 0.00 0.00 60 1018.0
20260504014522 55 291 1.0 2.0 0.00 0.00 0.00 58 1018.0
20260504014024 55 291 0.0 2.0 0.00 0.00 0.00 56 1018.0
20260504013522 55 291 2.0 2.0 0.00 0.00 0.00 55 1017.9
20260504013031 56 233 0.0 2.0 0.00 0.00 0.00 54 1017.9
20260504012518 56 233 0.0 2.0 0.00 0.00 0.00 54 1017.9
20260504012023 56 233 0.0 2.0 0.00 0.00 0.00 54 1017.9
20260504011518 56 233 1.0 3.0 0.00 0.00 0.00 54 1017.8
20260504011017 55 233 1.0 3.0 0.00 0.00 0.00 55 1017.8
20260504010517 56 248 2.0 3.0 0.00 0.00 0.00 55 1017.8
20260504010017 56 262 0.0 2.0 0.00 0.00 0.00 55 1017.8
20260504005517 56 262 0.0 2.0 0.00 0.00 0.00 53 1017.8
20260504005016 56 262 0.0 2.0 0.00 0.00 0.00 53 1017.8
20260504004515 56 262 1.0 2.0 0.00 0.00 0.00 54 1017.8
20260504004015 56 271 0.0 2.0 0.00 0.00 0.00 55 1017.8
20260504003514 56 271 1.0 2.0 0.00 0.00 0.00 54 1017.8
20260504003028 56 271 0.0 2.0 0.00 0.00 0.00 53 1017.7
20260504002513 56 273 1.0 2.0 0.00 0.00 0.00 54 1017.7
20260504002013 57 273 0.0 2.0 0.00 0.00 0.00 53 1017.7
20260504001513 57 273 0.0 4.0 0.00 0.00 0.00 51 1017.7
20260504001013 57 194 0.0 2.0 0.00 0.00 0.00 51 1017.7
20260504000512 57 194 0.0 2.0 0.00 0.00 0.00 52 1017.8
20260504000012 56 194 0.0 2.0 0.00 0.00 0.00 51 1017.7
20260503235511 56 194 0.0 2.0 0.00 0.00 0.00 51 1017.7
20260503235009 57 194 1.0 2.0 0.00 0.00 0.00 51 1017.7
20260503234508 57 194 0.0 2.0 0.00 0.00 0.00 50 1017.6
20260503234009 57 194 0.0 2.0 0.00 0.00 0.00 49 1017.6
20260503233508 58 194 0.0 2.0 0.00 0.00 0.00 48 1017.6
20260503233006 58 194 0.0 2.0 0.00 0.00 0.00 48 1017.6
20260503232506 58 194 0.0 2.0 0.00 0.00 0.00 48 1017.6
20260503232006 58 194 1.0 2.0 0.00 0.00 0.00 47 1017.4
20260503231506 58 194 1.0 2.0 0.00 0.00 0.00 47 1017.4
20260503231007 58 194 1.0 2.0 0.00 0.00 0.00 46 1017.4
20260503230509 58 194 0.0 2.0 0.00 0.00 0.00 46 1017.4
20260503230005 58 194 0.0 2.0 0.00 0.00 0.00 45 1017.4
20260503225505 58 194 0.0 2.0 0.00 0.00 0.00 45 1017.3
20260503225101 58 194 0.0 2.0 0.00 0.00 0.00 45 1017.2
20260503224600 58 194 0.0 2.0 0.00 0.00 0.00 44 1017.2
20260503224059 59 194 0.0 2.0 0.00 0.00 0.00 45 1017.2
20260503223558 59 194 0.0 2.0 0.00 0.00 0.00 43 1017.2
20260503223057 59 194 0.0 2.0 0.00 0.00 0.00 43 1017.2
20260503222555 59 194 1.0 2.0 0.00 0.00 0.00 42 1017.2
20260503222054 60 194 0.0 2.0 0.00 0.00 0.00 43 1017.1
20260503221554 60 194 0.0 2.0 0.00 0.00 0.00 42 1017.1
20260503221056 60 194 0.0 2.0 0.00 0.00 0.00 41 1017.0
20260503220552 61 194 0.0 2.0 0.00 0.00 0.00 39 1016.9
20260503220050 62 194 0.0 2.0 0.00 0.00 0.00 39 1016.8
20260503215549 63 194 0.0 2.0 0.00 0.00 0.00 39 1016.8
20260503215050 63 194 0.0 2.0 0.00 0.00 0.00 44 1016.8
20260503214550 63 194 0.0 2.0 0.00 0.00 0.00 42 1016.7
20260503214056 63 194 0.0 2.0 0.00 0.00 0.00 42 1016.7
20260503213549 63 194 0.0 2.0 0.00 0.00 0.00 41 1016.7
20260503213050 63 194 0.0 2.0 0.00 0.00 0.00 39 1016.7
20260503212550 64 194 0.0 2.0 0.00 0.00 0.00 40 1016.6
20260503212049 64 194 0.0 2.0 0.00 0.00 0.00 39 1016.6
20260503211548 65 183 0.0 2.0 0.00 0.00 0.00 41 1016.5
20260503211048 65 287 0.0 4.0 0.00 0.00 0.00 41 1016.5
20260503210548 65 309 1.0 4.0 0.00 0.00 0.00 39 1016.4
20260503210049 65 264 1.0 4.0 0.00 0.00 0.00 40 1016.4
20260503205549 66 304 0.0 5.0 0.00 0.00 0.00 39 1016.4
20260503205051 66 294 0.0 5.0 0.00 0.00 0.00 38 1016.4
20260503204548 65 277 1.0 5.0 0.00 0.00 0.00 37 1016.4
20260503204047 65 192 1.0 3.0 0.00 0.00 0.00 35 1016.3
20260503203552 65 287 1.0 3.0 0.00 0.00 0.00 35 1016.3
20260503203049 65 297 0.0 2.0 0.00 0.00 0.00 30 1016.4
20260503202547 65 297 0.0 2.0 0.00 0.00 0.00 29 1016.3
20260503202049 65 297 0.0 2.0 0.00 0.00 0.00 27 1016.3
20260503201546 65 297 0.0 2.0 0.00 0.00 0.00 28 1016.3
20260503201049 65 297 1.0 2.0 0.00 0.00 0.00 28 1016.2
20260503200546 66 297 0.0 2.0 0.00 0.00 0.00 27 1016.1
20260503200046 67 297 0.0 2.0 0.00 0.00 0.00 26 1016.1
20260503195546 67 297 0.0 2.0 0.00 0.00 0.00 26 1016.1
20260503195045 68 297 0.0 2.0 0.00 0.00 0.00 26 1016.1
20260503194550 69 297 0.0 2.0 0.00 0.00 0.00 26 1016.1
20260503194046 70 297 0.0 3.0 0.00 0.00 0.00 24 1016.0
20260503193545 71 297 1.0 5.0 0.00 0.00 0.00 21 1016.0
20260503193045 71 297 2.0 5.0 0.00 0.00 0.00 20 1015.8
20260503192545 71 245 0.0 5.0 0.00 0.00 0.00 18 1015.8
20260503192044 72 259 2.0 10.0 0.00 0.00 0.00 18 1015.8
20260503191544 72 268 1.0 10.0 0.00 0.00 0.00 18 1015.8
20260503191044 71 275 6.0 10.0 0.00 0.00 0.00 18 1015.7
20260503190544 71 292 3.0 10.0 0.00 0.00 0.00 18 1015.7
20260503190043 71 245 2.0 8.0 0.00 0.00 0.00 18 1015.7
20260503185544 71 297 4.0 9.0 0.00 0.00 0.00 19 1015.5
20260503185043 71 285 3.0 9.0 0.00 0.00 0.00 18 1015.5
20260503184601 71 286 1.0 6.0 0.00 0.00 0.00 18 1015.4
20260503184044 71 266 3.0 6.0 0.00 0.00 0.00 18 1015.3
20260503183543 72 304 1.0 10.0 0.00 0.00 0.00 17 1015.3
20260503183048 72 232 1.0 11.0 0.00 0.00 0.00 18 1015.1
20260503182542 72 278 5.0 11.0 0.00 0.00 0.00 17 1015.1
20260503182041 72 286 3.0 10.0 0.00 0.00 0.00 16 1015.0
20260503181546 72 166 2.0 10.0 0.00 0.00 0.00 16 1015.0
20260503181042 73 271 1.0 13.0 0.00 0.00 0.00 17 1014.9
20260503180542 73 289 3.0 13.0 0.00 0.00 0.00 17 1014.9
20260503180041 73 268 5.0 12.0 0.00 0.00 0.00 17 1014.9
20260503175540 73 289 2.0 8.0 0.00 0.00 0.00 18 1014.9
20260503175043 73 250 1.0 10.0 0.00 0.00 0.00 20 1014.8
20260503174541 72 288 2.0 10.0 0.00 0.00 0.00 18 1014.8
20260503174041 73 264 6.0 9.0 0.00 0.00 0.00 24 1014.8
20260503173544 73 268 1.0 6.0 0.00 0.00 0.00 24 1014.8
20260503173041 73 218 0.0 7.0 0.00 0.00 0.00 24 1014.8
20260503172543 73 314 3.0 7.0 0.00 0.00 0.00 24 1014.7
20260503172040 74 244 1.0 4.0 0.00 0.00 0.00 24 1014.8
20260503171603 74 160 1.0 4.0 0.00 0.00 0.00 23 1014.7
20260503171040 74 276 1.0 4.0 0.00 0.00 0.00 20 1014.8
20260503170540 74 314 0.0 2.0 0.00 0.00 0.00 19 1014.8